• In Hungary
  • List of Countries
  • For 7 days
  • Water Temperature
  • Satellite Maps
  • Weather Map
  • News
  • Weather Widgets
  • user-avatar
    Login

    Hourly Weather Horodyliv

    Today, 22 October, Sunday

    Time Temperature Precipitation Wind Pressure Humidity
    00:00 +8°C° 0 mm 3 mps 736 mmHg 92%
    01:00 +8°C° 0 mm 2 mps 736 mmHg 93%
    02:00 +8°C° 0 mm 2 mps 736 mmHg 96%
    03:00 +9°C° 0 mm 2 mps 736 mmHg 95%
    04:00 +9°C° 0 mm 2 mps 736 mmHg 93%
    05:00 +9°C° 0 mm 2 mps 737 mmHg 92%
    06:00 +9°C° 0 mm 2 mps 737 mmHg 91%
    07:00 +9°C° 0 mm 2 mps 737 mmHg 90%
    08:00 +9°C° 0 mm 2 mps 737 mmHg 88%
    09:00 +9°C° 0 mm 3 mps 737 mmHg 85%
    10:00 +9°C° 0 mm 3 mps 738 mmHg 82%
    11:00 +10°C° 0 mm 3 mps 738 mmHg 79%
    12:00 +10°C° 0 mm 3 mps 738 mmHg 78%
    13:00 +10°C° 0 mm 3 mps 737 mmHg 77%
    14:00 +10°C° 0 mm 3 mps 737 mmHg 75%
    15:00 +10°C° 0 mm 3 mps 737 mmHg 76%
    16:00 +10°C° 0 mm 3 mps 737 mmHg 77%
    17:00 +9°C° 0 mm 3 mps 736 mmHg 79%
    18:00 +8°C° 0 mm 4 mps 736 mmHg 80%
    19:00 +7°C° 0 mm 4 mps 736 mmHg 82%
    20:00 +6°C° 0 mm 4 mps 736 mmHg 84%
    21:00 +6°C° 0 mm 4 mps 736 mmHg 83%
    22:00 +6°C° 0 mm 5 mps 736 mmHg 83%
    23:00 +6°C° 0 mm 5 mps 736 mmHg 82%

    Tomorrow, 23 October, Monday

    Time Temperature Precipitation Wind Pressure Humidity
    00:00 +6°C° 0 mm 5 mps 736 mmHg 83%
    01:00 +6°C° 0 mm 5 mps 735 mmHg 83%
    02:00 +5°C° 0 mm 5 mps 735 mmHg 84%
    03:00 +5°C° 0 mm 5 mps 735 mmHg 84%
    04:00 +5°C° 0 mm 5 mps 734 mmHg 84%
    05:00 +5°C° 0 mm 5 mps 734 mmHg 84%
    06:00 +5°C° 0.1 mm 5 mps 734 mmHg 84%
    07:00 +5°C° 0.1 mm 5 mps 734 mmHg 83%
    08:00 +5°C° 0.1 mm 5 mps 734 mmHg 83%
    09:00 +6°C° 0.1 mm 5 mps 734 mmHg 81%
    10:00 +6°C° 0.1 mm 5 mps 733 mmHg 80%
    11:00 +7°C° 0.1 mm 5 mps 733 mmHg 78%
    12:00 +7°C° 0.1 mm 5 mps 733 mmHg 78%
    13:00 +7°C° 0.1 mm 5 mps 733 mmHg 77%
    14:00 +7°C° 0.1 mm 5 mps 733 mmHg 77%
    15:00 +7°C° 0.3 mm 5 mps 733 mmHg 79%
    16:00 +7°C° 0.3 mm 5 mps 733 mmHg 80%
    17:00 +7°C° 0.3 mm 5 mps 733 mmHg 82%
    18:00 +7°C° 0.7 mm 5 mps 733 mmHg 83%
    19:00 +7°C° 0.7 mm 5 mps 733 mmHg 83%
    20:00 +5°C° 0.7 mm 6 mps 734 mmHg 84%
    21:00 +5°C° 1 mm 6 mps 734 mmHg 84%
    22:00 +6°C° 1 mm 5 mps 734 mmHg 85%
    23:00 +5°C° 1 mm 5 mps 735 mmHg 85%

    Day after tomorrow, 24 October, Tuesday

    Time Temperature Precipitation Wind Pressure Humidity
    00:00 +5°C° 0.7 mm 5 mps 735 mmHg 86%
    01:00 +5°C° 0.7 mm 5 mps 735 mmHg 86%
    02:00 +5°C° 0.7 mm 5 mps 736 mmHg 86%
    03:00 +3°C° 0.2 mm 5 mps 736 mmHg 85%
    04:00 +3°C° 0.2 mm 5 mps 737 mmHg 85%
    05:00 +3°C° 0.2 mm 5 mps 737 mmHg 84%
    06:00 +3°C° 0.1 mm 5 mps 738 mmHg 84%
    07:00 +3°C° 0.1 mm 5 mps 738 mmHg 83%
    08:00 +2°C° 0.1 mm 5 mps 739 mmHg 83%
    09:00 +3°C° 0.1 mm 5 mps 739 mmHg 81%
    10:00 +4°C° 0.1 mm 4 mps 740 mmHg 79%
    11:00 +4°C° 0.1 mm 4 mps 741 mmHg 77%
    12:00 +5°C° 0 mm 4 mps 741 mmHg 75%
    13:00 +5°C° 0 mm 4 mps 741 mmHg 73%
    14:00 +6°C° 0 mm 4 mps 741 mmHg 71%
    15:00 +5°C° 0 mm 3 mps 742 mmHg 73%
    16:00 +5°C° 0 mm 3 mps 742 mmHg 75%
    17:00 +5°C° 0 mm 2 mps 742 mmHg 76%
    18:00 +5°C° 0 mm 2 mps 743 mmHg 78%
    19:00 +4°C° 0 mm 2 mps 743 mmHg 79%
    20:00 +4°C° 0 mm 2 mps 744 mmHg 81%
    21:00 +3°C° 0 mm 2 mps 744 mmHg 82%
    22:00 +3°C° 0 mm 2 mps 744 mmHg 82%
    23:00 +4°C° 0 mm 1 mps 744 mmHg 83%

    25 October, Wednesday

    Time Temperature Precipitation Wind Pressure Humidity
    00:00 +3°C° 0 mm 1 mps 744 mmHg 84%
    01:00 +3°C° 0 mm 1 mps 744 mmHg 84%
    02:00 +3°C° 0 mm 1 mps 744 mmHg 85%
    03:00 +2°C° 0 mm 1 mps 745 mmHg 85%
    04:00 +2°C° 0 mm 1 mps 745 mmHg 85%
    05:00 +2°C° 0 mm 1 mps 745 mmHg 85%
    06:00 +2°C° 0 mm 1 mps 745 mmHg 84%
    07:00 +2°C° 0 mm 1 mps 745 mmHg 83%
    08:00 +2°C° 0 mm 1 mps 745 mmHg 81%
    09:00 +3°C° 0 mm 2 mps 745 mmHg 74%
    10:00 +4°C° 0 mm 2 mps 746 mmHg 67%
    11:00 +6°C° 0 mm 2 mps 746 mmHg 60%
    12:00 +7°C° 0 mm 2 mps 745 mmHg 58%
    13:00 +8°C° 0 mm 2 mps 745 mmHg 55%
    14:00 +8°C° 0 mm 2 mps 745 mmHg 53%
    15:00 +7°C° 0 mm 2 mps 745 mmHg 57%
    16:00 +7°C° 0 mm 2 mps 745 mmHg 61%
    17:00 +6°C° 0 mm 2 mps 744 mmHg 66%
    18:00 +5°C° 0 mm 2 mps 744 mmHg 68%
    19:00 +5°C° 0 mm 2 mps 744 mmHg 71%
    20:00 +3°C° 0 mm 3 mps 744 mmHg 73%
    21:00 +4°C° 0 mm 3 mps 744 mmHg 72%
    22:00 +4°C° 0 mm 4 mps 744 mmHg 71%
    23:00 +5°C° 0 mm 4 mps 744 mmHg 70%

    26 October, Thursday

    Time Temperature Precipitation Wind Pressure Humidity
    00:00 +5°C° 0 mm 4 mps 743 mmHg 72%
    01:00 +5°C° 0 mm 4 mps 743 mmHg 73%
    02:00 +5°C° 0 mm 4 mps 742 mmHg 75%
    03:00 +6°C° 0.1 mm 4 mps 742 mmHg 76%
    04:00 +6°C° 0.1 mm 5 mps 741 mmHg 77%
    05:00 +6°C° 0.1 mm 5 mps 740 mmHg 77%
    06:00 +7°C° 0.2 mm 5 mps 740 mmHg 78%
    07:00 +8°C° 0.2 mm 5 mps 740 mmHg 78%
    08:00 +8°C° 0.2 mm 6 mps 740 mmHg 78%
    09:00 +9°C° 0.2 mm 6 mps 740 mmHg 79%
    10:00 +10°C° 0.2 mm 6 mps 740 mmHg 81%
    11:00 +10°C° 0.2 mm 7 mps 740 mmHg 83%
    12:00 +11°C° 0.1 mm 7 mps 740 mmHg 79%
    13:00 +11°C° 0.1 mm 7 mps 740 mmHg 76%
    14:00 +12°C° 0.1 mm 7 mps 740 mmHg 72%
    15:00 +11°C° 0.1 mm 6 mps 740 mmHg 74%
    16:00 +10°C° 0.1 mm 5 mps 740 mmHg 77%
    17:00 +11°C° 0.1 mm 4 mps 740 mmHg 79%
    18:00 +10°C° 0 mm 4 mps 740 mmHg 82%
    19:00 +10°C° 0 mm 4 mps 740 mmHg 84%
    20:00 +8°C° 0 mm 4 mps 739 mmHg 87%
    21:00 +8°C° 0 mm 4 mps 739 mmHg 86%
    22:00 +8°C° 0 mm 4 mps 739 mmHg 86%
    23:00 +8°C° 0 mm 4 mps 739 mmHg 86%

    27 October, Friday

    Time Temperature Precipitation Wind Pressure Humidity
    00:00 +8°C° 0 mm 5 mps 739 mmHg 86%
    01:00 +8°C° 0 mm 5 mps 738 mmHg 86%
    02:00 +7°C° 0 mm 5 mps 738 mmHg 86%
    03:00 +7°C° 0 mm 5 mps 738 mmHg 86%
    04:00 +7°C° 0 mm 5 mps 737 mmHg 86%
    05:00 +8°C° 0 mm 5 mps 737 mmHg 86%
    06:00 +8°C° 0 mm 5 mps 737 mmHg 86%
    07:00 +8°C° 0 mm 5 mps 736 mmHg 87%
    08:00 +8°C° 0 mm 5 mps 736 mmHg 87%
    09:00 +9°C° 0.1 mm 6 mps 736 mmHg 82%
    10:00 +10°C° 0.1 mm 6 mps 735 mmHg 78%
    11:00 +10°C° 0.1 mm 7 mps 735 mmHg 73%
    12:00 +11°C° 0.1 mm 7 mps 735 mmHg 72%
    13:00 +11°C° 0.1 mm 7 mps 734 mmHg 71%
    14:00 +11°C° 0.1 mm 6 mps 734 mmHg 70%
    15:00 +10°C° 0 mm 5 mps 733 mmHg 73%
    16:00 +11°C° 0 mm 4 mps 733 mmHg 75%
    17:00 +10°C° 0 mm 3 mps 732 mmHg 78%
    18:00 +10°C° 0.1 mm 3 mps 731 mmHg 80%
    19:00 +10°C° 0.1 mm 3 mps 731 mmHg 83%
    20:00 +9°C° 0.1 mm 3 mps 730 mmHg 86%
    21:00 +10°C° 0.1 mm 4 mps 729 mmHg 85%
    22:00 +9°C° 0.1 mm 5 mps 727 mmHg 84%
    23:00 +9°C° 0.1 mm 6 mps 726 mmHg 83%
    Show more